Time,TemperatureF,DewpointF,PressureIn,WindDirection,WindDirectionDegrees,WindSpeedMPH,WindSpeedGustMPH,Humidity,HourlyPrecipIn,Conditions,Clouds,dailyrainin,SolarRadiationWatts/m^2,SoftwareType,DateUTC
2013-09-27 00:01:00,58.4,52.6,29.85,West,270,0.0,0.0,81,0.00,,,0.00,0,Wunderground v.1.15,2013-09-27 07:01:00,
2013-09-27 00:06:00,58.1,52.0,29.85,West,270,0.0,0.0,80,0.00,,,0.00,0,Wunderground v.1.15,2013-09-27 07:06:00,
2013-09-27 00:15:00,57.7,51.6,29.85,West,270,0.0,0.0,80,0.00,,,0.00,0,Wunderground v.1.15,2013-09-27 07:15:00,
2013-09-27 00:20:00,57.5,47.8,29.85,West,270,0.0,0.0,70,0.00,,,0.00,0,Wunderground v.1.15,2013-09-27 07:20:00,
2013-09-27 00:31:00,57.2,48.3,29.85,West,270,0.0,0.0,72,0.00,,,0.00,0,Wunderground v.1.15,2013-09-27 07:31:00,
2013-09-27 00:40:00,56.8,47.9,29.85,West,270,0.0,0.0,72,0.00,,,0.00,0,Wunderground v.1.15,2013-09-27 07:40:00,
2013-09-27 00:46:00,56.7,48.1,29.85,West,270,0.0,0.0,73,0.00,,,0.00,0,Wunderground v.1.15,2013-09-27 07:46:00,
2013-09-27 00:51:00,56.5,47.2,29.85,West,270,0.0,0.0,71,0.00,,,0.00,0,Wunderground v.1.15,2013-09-27 07:51:00,
2013-09-27 01:01:00,56.2,49.4,29.85,West,270,0.0,0.0,78,0.00,,,0.00,0,Wunderground v.1.15,2013-09-27 08:01:00,
2013-09-27 01:06:00,56.1,46.8,29.85,West,270,0.0,0.0,71,0.00,,,0.00,0,Wunderground v.1.15,2013-09-27 08:06:00,
2013-09-27 01:15:00,55.8,47.3,29.85,West,270,0.0,0.0,73,0.00,,,0.00,0,Wunderground v.1.15,2013-09-27 08:15:00,
2013-09-27 01:20:00,55.7,45.7,29.85,West,270,0.0,0.0,69,0.00,,,0.00,0,Wunderground v.1.15,2013-09-27 08:20:00,
2013-09-27 01:25:00,55.7,45.7,29.85,West,270,0.0,0.0,69,0.00,,,0.00,0,Wunderground v.1.15,2013-09-27 08:25:00,
2013-09-27 01:30:00,55.6,45.6,29.85,West,270,0.0,0.0,69,0.00,,,0.00,0,Wunderground v.1.15,2013-09-27 08:30:00,
2013-09-27 01:40:00,55.5,45.5,29.85,West,270,0.0,0.0,69,0.00,,,0.00,0,Wunderground v.1.15,2013-09-27 08:40:00,
2013-09-27 01:46:00,55.5,45.9,29.85,West,270,0.0,0.0,70,0.00,,,0.00,0,Wunderground v.1.15,2013-09-27 08:46:00,
2013-09-27 01:55:00,55.5,46.6,29.85,West,270,0.0,0.0,72,0.00,,,0.00,0,Wunderground v.1.15,2013-09-27 08:55:00,
2013-09-27 02:00:00,55.6,46.7,29.85,West,270,0.0,0.0,72,0.00,,,0.00,0,Wunderground v.1.15,2013-09-27 09:00:00,
2013-09-27 02:06:00,55.6,46.7,29.86,West,270,0.0,0.0,72,0.00,,,0.00,0,Wunderground v.1.15,2013-09-27 09:06:00,
2013-09-27 02:15:00,55.4,47.2,29.86,West,270,0.0,0.0,74,0.00,,,0.00,0,Wunderground v.1.15,2013-09-27 09:15:00,
2013-09-27 02:20:00,55.2,46.0,29.85,West,270,0.0,0.0,71,0.00,,,0.00,0,Wunderground v.1.15,2013-09-27 09:20:00,
2013-09-27 02:26:00,55.2,45.6,29.86,West,270,0.0,0.0,70,0.00,,,0.00,0,Wunderground v.1.15,2013-09-27 09:26:00,
2013-09-27 02:36:00,54.8,45.6,29.86,West,270,0.0,1.0,71,0.00,,,0.00,0,Wunderground v.1.15,2013-09-27 09:36:00,
2013-09-27 02:45:00,54.6,45.8,29.85,West,270,0.0,0.0,72,0.00,,,0.00,0,Wunderground v.1.15,2013-09-27 09:45:00,
2013-09-27 02:50:00,54.6,46.8,29.85,West,270,0.0,0.0,75,0.00,,,0.00,0,Wunderground v.1.15,2013-09-27 09:50:00,
2013-09-27 02:55:00,54.5,46.4,29.86,West,270,0.0,0.0,74,0.00,,,0.00,0,Wunderground v.1.15,2013-09-27 09:55:00,
2013-09-27 03:06:00,54.6,47.2,29.85,West,270,0.0,0.0,76,0.00,,,0.00,0,Wunderground v.1.15,2013-09-27 10:06:00,
2013-09-27 03:16:00,54.5,46.7,29.85,West,270,0.0,0.0,75,0.00,,,0.00,0,Wunderground v.1.15,2013-09-27 10:16:00,
2013-09-27 03:25:00,54.3,46.2,29.85,West,270,0.0,0.0,74,0.00,,,0.00,0,Wunderground v.1.15,2013-09-27 10:25:00,
2013-09-27 03:30:00,54.3,46.2,29.85,West,270,0.0,0.0,74,0.00,,,0.00,0,Wunderground v.1.15,2013-09-27 10:30:00,
2013-09-27 03:40:00,54.3,46.5,29.85,West,270,0.0,0.0,75,0.00,,,0.00,0,Wunderground v.1.15,2013-09-27 10:40:00,
2013-09-27 03:46:00,54.2,46.1,29.85,West,270,0.0,0.0,74,0.00,,,0.00,0,Wunderground v.1.15,2013-09-27 10:46:00,
2013-09-27 03:55:00,54.3,46.5,29.85,West,270,0.0,0.0,75,0.00,,,0.00,0,Wunderground v.1.15,2013-09-27 10:55:00,
2013-09-27 04:00:00,54.2,46.4,29.85,West,270,1.0,1.0,75,0.00,,,0.00,0,Wunderground v.1.15,2013-09-27 11:00:00,
2013-09-27 04:06:00,54.2,46.8,29.85,West,270,0.0,1.0,76,0.00,,,0.00,0,Wunderground v.1.15,2013-09-27 11:06:00,
2013-09-27 04:16:00,53.9,47.2,29.85,West,270,0.0,0.0,78,0.00,,,0.00,0,Wunderground v.1.15,2013-09-27 11:16:00,
2013-09-27 04:25:00,53.7,44.5,29.85,West,270,0.0,0.0,71,0.00,,,0.00,0,Wunderground v.1.15,2013-09-27 11:25:00,
2013-09-27 04:30:00,53.6,44.0,29.85,West,270,0.0,0.0,70,0.00,,,0.00,0,Wunderground v.1.15,2013-09-27 11:30:00,
2013-09-27 04:40:00,53.6,44.4,29.86,West,270,0.0,0.0,71,0.00,,,0.00,0,Wunderground v.1.15,2013-09-27 11:40:00,
2013-09-27 04:45:00,53.8,44.6,29.86,West,270,0.0,0.0,71,0.00,,,0.00,0,Wunderground v.1.15,2013-09-27 11:45:00,
2013-09-27 04:50:00,53.8,44.2,29.86,West,270,2.0,2.0,70,0.00,,,0.00,0,Wunderground v.1.15,2013-09-27 11:50:00,
2013-09-27 04:56:00,53.9,44.3,29.86,West,270,0.0,2.0,70,0.00,,,0.00,0,Wunderground v.1.15,2013-09-27 11:56:00,
2013-09-27 05:06:00,53.9,44.7,29.87,West,270,0.0,2.0,71,0.00,,,0.00,0,Wunderground v.1.15,2013-09-27 12:06:00,
2013-09-27 05:15:00,53.7,44.5,29.87,West,270,0.0,0.0,71,0.00,,,0.00,0,Wunderground v.1.15,2013-09-27 12:15:00,
2013-09-27 05:20:00,53.7,44.9,29.87,West,270,0.0,0.0,72,0.00,,,0.00,0,Wunderground v.1.15,2013-09-27 12:20:00,
2013-09-27 05:25:00,53.5,44.0,29.88,West,270,0.0,0.0,70,0.00,,,0.00,0,Wunderground v.1.15,2013-09-27 12:25:00,
2013-09-27 05:31:00,53.4,44.2,29.88,West,270,0.0,0.0,71,0.00,,,0.00,0,Wunderground v.1.15,2013-09-27 12:31:00,
2013-09-27 05:41:00,53.2,47.2,29.88,West,270,0.0,0.0,80,0.00,,,0.00,0,Wunderground v.1.15,2013-09-27 12:41:00,
2013-09-27 05:50:00,53.1,47.1,29.88,West,270,0.0,0.0,80,0.00,,,0.00,0,Wunderground v.1.15,2013-09-27 12:50:00,
2013-09-27 05:55:00,53.2,47.2,29.88,West,270,0.0,0.0,80,0.00,,,0.00,0,Wunderground v.1.15,2013-09-27 12:55:00,
2013-09-27 06:01:00,53.4,47.4,29.88,West,270,0.0,0.0,80,0.00,,,0.00,0,Wunderground v.1.15,2013-09-27 13:01:00,
2013-09-27 06:06:00,53.4,47.4,29.88,West,270,0.0,0.0,80,0.00,,,0.00,0,Wunderground v.1.15,2013-09-27 13:06:00,
2013-09-27 06:15:00,53.2,47.5,29.89,West,270,0.0,0.0,81,0.00,,,0.00,0,Wunderground v.1.15,2013-09-27 13:15:00,
2013-09-27 06:20:00,53.1,47.4,29.89,West,270,0.0,0.0,81,0.00,,,0.00,0,Wunderground v.1.15,2013-09-27 13:20:00,
2013-09-27 06:25:00,53.0,47.3,29.89,West,270,0.0,0.0,81,0.00,,,0.00,0,Wunderground v.1.15,2013-09-27 13:25:00,
2013-09-27 06:31:00,52.9,47.2,29.90,West,270,0.0,0.0,81,0.00,,,0.00,0,Wunderground v.1.15,2013-09-27 13:31:00,
2013-09-27 06:40:00,52.6,47.9,29.90,West,270,0.0,0.0,84,0.00,,,0.00,0,Wunderground v.1.15,2013-09-27 13:40:00,
2013-09-27 06:50:00,52.4,47.7,29.91,West,270,0.0,0.0,84,0.00,,,0.00,0,Wunderground v.1.15,2013-09-27 13:50:00,
2013-09-27 06:55:00,52.3,47.3,29.91,West,270,0.0,0.0,83,0.00,,,0.00,0,Wunderground v.1.15,2013-09-27 13:55:00,
2013-09-27 07:00:00,52.3,47.3,29.91,West,270,0.0,0.0,83,0.00,,,0.00,0,Wunderground v.1.15,2013-09-27 14:00:00,
2013-09-27 07:06:00,52.3,47.3,29.91,West,270,0.0,0.0,83,0.00,,,0.00,0,Wunderground v.1.15,2013-09-27 14:06:00,
2013-09-27 07:15:00,52.3,47.3,29.91,West,270,0.0,0.0,83,0.00,,,0.00,0,Wunderground v.1.15,2013-09-27 14:15:00,
2013-09-27 07:20:00,52.3,47.3,29.92,West,270,0.0,0.0,83,0.00,,,0.00,0,Wunderground v.1.15,2013-09-27 14:20:00,
2013-09-27 07:25:00,52.5,47.5,29.92,West,270,0.0,0.0,83,0.00,,,0.00,0,Wunderground v.1.15,2013-09-27 14:25:00,
2013-09-27 07:31:00,52.5,47.5,29.92,West,270,0.0,0.0,83,0.00,,,0.00,0,Wunderground v.1.15,2013-09-27 14:31:00,
2013-09-27 07:40:00,52.8,47.5,29.92,West,270,0.0,0.0,82,0.00,,,0.00,0,Wunderground v.1.15,2013-09-27 14:40:00,
2013-09-27 07:46:00,53.1,47.7,29.92,West,270,0.0,0.0,82,0.00,,,0.00,0,Wunderground v.1.15,2013-09-27 14:46:00,
2013-09-27 07:55:00,53.7,48.7,29.93,West,270,0.0,0.0,83,0.00,,,0.00,0,Wunderground v.1.15,2013-09-27 14:55:00,
2013-09-27 08:00:00,54.2,49.1,29.93,West,270,0.0,0.0,83,0.00,,,0.00,0,Wunderground v.1.15,2013-09-27 15:00:00,
2013-09-27 08:05:00,54.8,50.1,29.93,West,270,0.0,0.0,84,0.00,,,0.00,0,Wunderground v.1.15,2013-09-27 15:05:00,
2013-09-27 08:15:00,55.7,50.6,29.93,West,270,0.0,0.0,83,0.00,,,0.00,0,Wunderground v.1.15,2013-09-27 15:15:00,
2013-09-27 08:21:00,56.3,51.2,29.93,West,270,0.0,0.0,83,0.00,,,0.00,0,Wunderground v.1.15,2013-09-27 15:21:00,
2013-09-27 08:30:00,57.2,51.8,29.94,West,270,0.0,0.0,82,0.00,,,0.00,0,Wunderground v.1.15,2013-09-27 15:30:00,
2013-09-27 08:40:00,58.4,52.6,29.94,West,270,0.0,0.0,81,0.00,,,0.00,0,Wunderground v.1.15,2013-09-27 15:40:00,
2013-09-27 08:45:00,59.1,53.6,29.94,West,270,0.0,0.0,82,0.00,,,0.00,0,Wunderground v.1.15,2013-09-27 15:45:00,
2013-09-27 08:50:00,60.0,54.2,29.94,West,270,0.0,0.0,81,0.00,,,0.00,0,Wunderground v.1.15,2013-09-27 15:50:00,
2013-09-27 08:56:00,60.4,54.5,29.94,West,270,0.0,0.0,81,0.00,,,0.00,0,Wunderground v.1.15,2013-09-27 15:56:00,
2013-09-27 09:06:00,61.1,55.2,29.94,West,270,0.0,0.0,81,0.00,,,0.00,0,Wunderground v.1.15,2013-09-27 16:06:00,
2013-09-27 09:15:00,61.9,55.7,29.94,West,270,1.0,1.0,80,0.00,,,0.00,0,Wunderground v.1.15,2013-09-27 16:15:00,
2013-09-27 09:20:00,62.4,55.8,29.94,West,270,0.0,0.0,79,0.00,,,0.00,0,Wunderground v.1.15,2013-09-27 16:20:00,
2013-09-27 09:26:00,62.9,56.3,29.94,West,270,0.0,0.0,79,0.00,,,0.00,0,Wunderground v.1.15,2013-09-27 16:26:00,
2013-09-27 09:35:00,63.9,56.2,29.95,West,270,0.0,0.0,76,0.00,,,0.00,0,Wunderground v.1.15,2013-09-27 16:35:00,
2013-09-27 09:41:00,65.0,53.8,29.95,West,262,0.0,0.0,67,0.00,,,0.00,0,Wunderground v.1.15,2013-09-27 16:41:00,
2013-09-27 09:50:00,66.4,57.5,29.95,SW,214,0.0,0.0,73,0.00,,,0.00,0,Wunderground v.1.15,2013-09-27 16:50:00,
2013-09-27 09:55:00,66.7,57.0,29.95,South,184,2.0,2.0,71,0.00,,,0.00,0,Wunderground v.1.15,2013-09-27 16:55:00,
2013-09-27 10:00:00,67.0,54.0,29.95,SSW,192,0.0,0.0,63,0.00,,,0.00,0,Wunderground v.1.15,2013-09-27 17:00:00,
2013-09-27 10:06:00,67.3,54.7,29.96,SSW,195,3.0,3.0,64,0.00,,,0.00,0,Wunderground v.1.15,2013-09-27 17:06:00,
2013-09-27 10:15:00,68.4,56.2,29.96,SW,221,1.0,1.0,65,0.00,,,0.00,0,Wunderground v.1.15,2013-09-27 17:15:00,
2013-09-27 10:20:00,68.4,55.7,29.96,SW,227,3.0,3.0,64,0.00,,,0.00,0,Wunderground v.1.15,2013-09-27 17:20:00,
2013-09-27 10:26:00,68.5,55.4,29.95,SW,230,3.0,3.0,63,0.00,,,0.00,0,Wunderground v.1.15,2013-09-27 17:26:00,
2013-09-27 10:31:00,68.6,54.2,29.96,SSW,203,3.0,3.0,60,0.00,,,0.00,0,Wunderground v.1.15,2013-09-27 17:31:00,
2013-09-27 10:41:00,69.1,57.7,29.95,South,183,0.0,0.0,67,0.00,,,0.00,0,Wunderground v.1.15,2013-09-27 17:41:00,
2013-09-27 10:50:00,70.4,57.2,29.95,South,182,0.0,0.0,63,0.00,,,0.00,0,Wunderground v.1.15,2013-09-27 17:50:00,
2013-09-27 10:55:00,70.7,57.0,29.95,South,183,1.0,1.0,62,0.00,,,0.00,0,Wunderground v.1.15,2013-09-27 17:55:00,
2013-09-27 11:01:00,71.1,57.9,29.95,South,183,0.0,0.0,63,0.00,,,0.00,0,Wunderground v.1.15,2013-09-27 18:01:00,
2013-09-27 11:06:00,71.7,58.9,29.95,South,183,1.0,1.0,64,0.00,,,0.00,0,Wunderground v.1.15,2013-09-27 18:06:00,
2013-09-27 11:15:00,73.0,61.0,29.94,SSW,196,0.0,2.0,66,0.00,,,0.00,0,Wunderground v.1.15,2013-09-27 18:15:00,
2013-09-27 11:20:00,73.7,61.2,29.94,SSW,199,0.0,0.0,65,0.00,,,0.00,0,Wunderground v.1.15,2013-09-27 18:20:00,
2013-09-27 11:25:00,74.1,59.3,29.94,SSW,199,1.0,1.0,60,0.00,,,0.00,0,Wunderground v.1.15,2013-09-27 18:25:00,
2013-09-27 11:30:00,74.2,59.4,29.94,SSW,196,2.0,2.0,60,0.00,,,0.00,0,Wunderground v.1.15,2013-09-27 18:30:00,
2013-09-27 11:40:00,74.5,60.6,29.93,SSW,198,0.0,0.0,62,0.00,,,0.00,0,Wunderground v.1.15,2013-09-27 18:40:00,
2013-09-27 11:50:00,75.1,61.2,29.93,SSW,198,1.0,1.0,62,0.00,,,0.00,0,Wunderground v.1.15,2013-09-27 18:50:00,
2013-09-27 11:56:00,75.1,62.1,29.93,SSW,197,3.0,3.0,64,0.00,,,0.00,0,Wunderground v.1.15,2013-09-27 18:56:00,
2013-09-27 12:06:00,75.1,62.1,29.93,SSW,212,2.0,3.0,64,0.00,,,0.00,0,Wunderground v.1.15,2013-09-27 19:06:00,
2013-09-27 12:15:00,75.9,61.0,29.93,SSW,196,0.0,2.0,60,0.00,,,0.00,0,Wunderground v.1.15,2013-09-27 19:15:00,
2013-09-27 12:20:00,75.9,61.5,29.93,SSW,204,4.0,4.0,61,0.00,,,0.00,0,Wunderground v.1.15,2013-09-27 19:20:00,
2013-09-27 12:30:00,73.5,61.0,29.93,South,191,3.0,3.0,65,0.00,,,0.00,0,Wunderground v.1.15,2013-09-27 19:30:00,
2013-09-27 12:36:00,73.0,61.4,29.93,SSW,192,4.0,4.0,67,0.00,,,0.00,0,Wunderground v.1.15,2013-09-27 19:36:00,
2013-09-27 12:45:00,73.5,60.6,29.92,SSW,198,5.0,6.0,64,0.00,,,0.00,0,Wunderground v.1.15,2013-09-27 19:45:00,
2013-09-27 12:50:00,73.5,61.4,29.92,WSW,240,0.0,0.0,66,0.00,,,0.00,0,Wunderground v.1.15,2013-09-27 19:50:00,
2013-09-27 12:56:00,73.6,61.5,29.91,South,186,4.0,4.0,66,0.00,,,0.00,0,Wunderground v.1.15,2013-09-27 19:56:00,
2013-09-27 13:06:00,72.9,61.7,29.91,SSW,213,0.0,6.0,68,0.00,,,0.00,0,Wunderground v.1.15,2013-09-27 20:06:00,
2013-09-27 13:15:00,72.9,62.5,29.91,SSW,211,0.0,4.0,70,0.00,,,0.00,0,Wunderground v.1.15,2013-09-27 20:15:00,
2013-09-27 13:20:00,73.4,62.6,29.90,SSW,199,2.0,2.0,69,0.00,,,0.00,0,Wunderground v.1.15,2013-09-27 20:20:00,
2013-09-27 13:30:00,74.2,63.0,29.90,SSE,152,4.0,4.0,68,0.00,,,0.00,0,Wunderground v.1.15,2013-09-27 20:30:00,
2013-09-27 13:36:00,72.9,62.5,29.90,SSW,201,1.0,4.0,70,0.00,,,0.00,0,Wunderground v.1.15,2013-09-27 20:36:00,
2013-09-27 13:45:00,73.5,63.1,29.90,South,169,0.0,2.0,70,0.00,,,0.00,0,Wunderground v.1.15,2013-09-27 20:45:00,
2013-09-27 13:50:00,73.6,61.1,29.89,SSW,205,6.0,6.0,65,0.00,,,0.00,0,Wunderground v.1.15,2013-09-27 20:50:00,
2013-09-27 14:00:00,73.6,60.7,29.89,SSW,195,4.0,4.0,64,0.00,,,0.00,0,Wunderground v.1.15,2013-09-27 21:00:00,
2013-09-27 14:06:00,73.7,60.3,29.89,WSW,243,5.0,5.0,63,0.00,,,0.00,0,Wunderground v.1.15,2013-09-27 21:06:00,
2013-09-27 14:15:00,75.0,61.1,29.89,WNW,295,4.0,4.0,62,0.00,,,0.00,0,Wunderground v.1.15,2013-09-27 21:15:00,
2013-09-27 14:20:00,75.9,60.1,29.88,WSW,238,1.0,1.0,58,0.00,,,0.00,0,Wunderground v.1.15,2013-09-27 21:20:00,
2013-09-27 14:26:00,76.1,58.2,29.88,WNW,289,7.0,7.0,54,0.00,,,0.00,0,Wunderground v.1.15,2013-09-27 21:26:00,
2013-09-27 14:35:00,76.6,56.6,29.88,SSE,147,0.0,2.0,50,0.00,,,0.00,0,Wunderground v.1.15,2013-09-27 21:35:00,
2013-09-27 14:40:00,77.2,57.1,29.88,NNW,332,5.0,5.0,50,0.00,,,0.00,0,Wunderground v.1.15,2013-09-27 21:40:00,
2013-09-27 14:45:00,78.1,57.9,29.88,NW,325,4.0,5.0,50,0.00,,,0.00,0,Wunderground v.1.15,2013-09-27 21:45:00,
2013-09-27 14:50:00,78.9,58.7,29.88,NNW,328,2.0,2.0,50,0.00,,,0.00,0,Wunderground v.1.15,2013-09-27 21:50:00,
2013-09-27 14:55:00,79.2,58.4,29.88,NW,315,10.0,10.0,49,0.00,,,0.00,0,Wunderground v.1.15,2013-09-27 21:55:00,
2013-09-27 15:01:00,79.4,57.4,29.88,NW,321,0.0,0.0,47,0.00,,,0.00,0,Wunderground v.1.15,2013-09-27 22:01:00,
2013-09-27 15:06:00,79.9,57.3,29.88,NW,322,2.0,2.0,46,0.00,,,0.00,0,Wunderground v.1.15,2013-09-27 22:06:00,
2013-09-27 15:15:00,80.6,56.7,29.88,West,279,0.0,2.0,44,0.00,,,0.00,0,Wunderground v.1.15,2013-09-27 22:15:00,
2013-09-27 15:20:00,81.2,56.6,29.88,WNW,295,4.0,4.0,43,0.00,,,0.00,0,Wunderground v.1.15,2013-09-27 22:20:00,
2013-09-27 15:25:00,81.7,56.4,29.88,WSW,243,2.0,4.0,42,0.00,,,0.00,0,Wunderground v.1.15,2013-09-27 22:25:00,
2013-09-27 15:30:00,81.3,56.0,29.88,WNW,285,3.0,3.0,42,0.00,,,0.00,0,Wunderground v.1.15,2013-09-27 22:30:00,
2013-09-27 15:40:00,81.9,57.8,29.88,WNW,300,2.0,2.0,44,0.00,,,0.00,0,Wunderground v.1.15,2013-09-27 22:40:00,
2013-09-27 15:46:00,81.9,57.8,29.88,WNW,299,0.0,2.0,44,0.00,,,0.00,0,Wunderground v.1.15,2013-09-27 22:46:00,
2013-09-27 15:55:00,82.6,58.5,29.88,NNW,328,1.0,1.0,44,0.00,,,0.00,0,Wunderground v.1.15,2013-09-27 22:55:00,
2013-09-27 16:00:00,82.1,58.0,29.88,WNW,290,2.0,2.0,44,0.00,,,0.00,0,Wunderground v.1.15,2013-09-27 23:00:00,
2013-09-27 16:05:00,81.7,58.3,29.88,SSW,212,1.0,2.0,45,0.00,,,0.00,0,Wunderground v.1.15,2013-09-27 23:05:00,
2013-09-27 16:16:00,81.1,57.7,29.88,WNW,300,3.0,3.0,45,0.00,,,0.00,0,Wunderground v.1.15,2013-09-27 23:16:00,
2013-09-27 16:25:00,81.6,58.8,29.88,NW,317,0.0,0.0,46,0.00,,,0.00,0,Wunderground v.1.15,2013-09-27 23:25:00,
2013-09-27 16:30:00,82.1,58.7,29.88,WNW,295,0.0,0.0,45,0.00,,,0.00,0,Wunderground v.1.15,2013-09-27 23:30:00,
2013-09-27 16:35:00,82.3,58.2,29.88,NW,320,3.0,3.0,44,0.00,,,0.00,0,Wunderground v.1.15,2013-09-27 23:35:00,
2013-09-27 16:45:00,81.5,58.1,29.89,West,259,0.0,0.0,45,0.00,,,0.00,0,Wunderground v.1.15,2013-09-27 23:45:00,
2013-09-27 16:50:00,81.6,58.8,29.88,NW,306,0.0,0.0,46,0.00,,,0.00,0,Wunderground v.1.15,2013-09-27 23:50:00,
2013-09-27 16:56:00,82.0,59.8,29.88,WNW,293,1.0,1.0,47,0.00,,,0.00,0,Wunderground v.1.15,2013-09-27 23:56:00,
2013-09-27 17:06:00,81.2,59.6,29.89,NNW,327,3.0,3.0,48,0.00,,,0.00,0,Wunderground v.1.15,2013-09-28 00:06:00,
2013-09-27 17:15:00,80.5,60.1,29.89,NW,325,0.0,4.0,50,0.00,,,0.00,0,Wunderground v.1.15,2013-09-28 00:15:00,
2013-09-27 17:20:00,80.5,59.6,29.89,WSW,253,2.0,2.0,49,0.00,,,0.00,0,Wunderground v.1.15,2013-09-28 00:20:00,
2013-09-27 17:26:00,80.3,58.8,29.89,West,275,0.0,2.0,48,0.00,,,0.00,0,Wunderground v.1.15,2013-09-28 00:26:00,
2013-09-27 17:35:00,79.9,58.5,29.90,West,272,0.0,0.0,48,0.00,,,0.00,0,Wunderground v.1.15,2013-09-28 00:35:00,
2013-09-27 17:45:00,79.2,56.0,29.90,NW,323,2.0,2.0,45,0.00,,,0.00,0,Wunderground v.1.15,2013-09-28 00:45:00,
2013-09-27 17:50:00,78.9,55.1,29.90,NW,311,0.0,0.0,44,0.00,,,0.00,0,Wunderground v.1.15,2013-09-28 00:50:00,
2013-09-27 17:55:00,78.3,54.0,29.89,NW,307,2.0,2.0,43,0.00,,,0.00,0,Wunderground v.1.15,2013-09-28 00:55:00,
2013-09-27 18:01:00,77.6,53.3,29.89,NW,310,3.0,3.0,43,0.00,,,0.00,0,Wunderground v.1.15,2013-09-28 01:01:00,
2013-09-27 18:06:00,76.5,52.3,29.90,SSW,197,0.0,3.0,43,0.00,,,0.00,0,Wunderground v.1.15,2013-09-28 01:06:00,
2013-09-27 18:16:00,75.3,52.5,29.90,NNW,334,0.0,1.0,45,0.00,,,0.00,0,Wunderground v.1.15,2013-09-28 01:16:00,
2013-09-27 18:25:00,74.0,50.7,29.90,NNW,337,2.0,2.0,44,0.00,,,0.00,0,Wunderground v.1.15,2013-09-28 01:25:00,
2013-09-27 18:30:00,73.5,50.2,29.90,NW,323,1.0,1.0,44,0.00,,,0.00,0,Wunderground v.1.15,2013-09-28 01:30:00,
2013-09-27 18:40:00,72.6,48.8,29.90,North,1,0.0,0.0,43,0.00,,,0.00,0,Wunderground v.1.15,2013-09-28 01:40:00,
2013-09-27 18:45:00,72.3,48.5,29.90,NW,311,0.0,0.0,43,0.00,,,0.00,0,Wunderground v.1.15,2013-09-28 01:45:00,
2013-09-27 18:50:00,72.0,48.3,29.90,WNW,289,2.0,2.0,43,0.00,,,0.00,0,Wunderground v.1.15,2013-09-28 01:50:00,
2013-09-27 19:00:00,71.4,47.1,29.91,NW,318,0.0,0.0,42,0.00,,,0.00,0,Wunderground v.1.15,2013-09-28 02:00:00,
2013-09-27 19:05:00,71.2,47.6,29.91,NW,318,0.0,0.0,43,0.00,,,0.00,0,Wunderground v.1.15,2013-09-28 02:05:00,
2013-09-27 19:15:00,70.6,47.6,29.91,NW,322,0.0,1.0,44,0.00,,,0.00,0,Wunderground v.1.15,2013-09-28 02:15:00,
2013-09-27 19:21:00,70.5,48.7,29.91,NW,326,2.0,2.0,46,0.00,,,0.00,0,Wunderground v.1.15,2013-09-28 02:21:00,
2013-09-27 19:30:00,70.2,49.0,29.91,NW,325,0.0,0.0,47,0.00,,,0.00,0,Wunderground v.1.15,2013-09-28 02:30:00,
2013-09-27 19:36:00,70.0,48.8,29.91,NW,325,0.0,0.0,47,0.00,,,0.00,0,Wunderground v.1.15,2013-09-28 02:36:00,
2013-09-27 19:45:00,69.8,49.2,29.92,NW,325,0.0,0.0,48,0.00,,,0.00,0,Wunderground v.1.15,2013-09-28 02:45:00,
2013-09-27 19:50:00,69.6,49.0,29.92,NW,309,0.0,0.0,48,0.00,,,0.00,0,Wunderground v.1.15,2013-09-28 02:50:00,
2013-09-27 19:55:00,69.4,48.3,29.92,NW,323,0.0,0.0,47,0.00,,,0.00,0,Wunderground v.1.15,2013-09-28 02:55:00,
2013-09-27 20:00:00,69.4,48.9,29.92,NW,323,0.0,0.0,48,0.00,,,0.00,0,Wunderground v.1.15,2013-09-28 03:00:00,
2013-09-27 20:06:00,69.3,48.2,29.92,NW,308,0.0,0.0,47,0.00,,,0.00,0,Wunderground v.1.15,2013-09-28 03:06:00,
2013-09-27 20:16:00,69.2,48.1,29.92,West,265,0.0,0.0,47,0.00,,,0.00,0,Wunderground v.1.15,2013-09-28 03:16:00,
2013-09-27 20:25:00,68.9,47.8,29.93,West,266,0.0,0.0,47,0.00,,,0.00,0,Wunderground v.1.15,2013-09-28 03:25:00,
2013-09-27 20:30:00,68.6,48.7,29.93,West,265,0.0,0.0,49,0.00,,,0.00,0,Wunderground v.1.15,2013-09-28 03:30:00,
2013-09-27 20:40:00,68.2,48.3,29.93,West,271,0.0,0.0,49,0.00,,,0.00,0,Wunderground v.1.15,2013-09-28 03:40:00,
2013-09-27 20:45:00,68.0,48.1,29.93,West,271,0.0,0.0,49,0.00,,,0.00,0,Wunderground v.1.15,2013-09-28 03:45:00,
2013-09-27 20:50:00,67.8,47.4,29.93,West,273,0.0,0.0,48,0.00,,,0.00,0,Wunderground v.1.15,2013-09-28 03:50:00,
2013-09-27 21:00:00,67.6,47.2,29.93,West,274,0.0,0.0,48,0.00,,,0.00,0,Wunderground v.1.15,2013-09-28 04:00:00,
2013-09-27 21:06:00,67.5,47.7,29.93,West,274,0.0,0.0,49,0.00,,,0.00,0,Wunderground v.1.15,2013-09-28 04:06:00,
2013-09-27 21:10:00,67.4,47.6,29.93,West,274,0.0,0.0,49,0.00,,,0.00,0,Wunderground v.1.15,2013-09-28 04:10:00,
2013-09-27 21:15:00,67.1,46.7,29.94,West,274,0.0,0.0,48,0.00,,,0.00,0,Wunderground v.1.15,2013-09-28 04:15:00,
2013-09-27 21:20:00,67.0,47.2,29.94,West,274,0.0,0.0,49,0.00,,,0.00,0,Wunderground v.1.15,2013-09-28 04:20:00,
2013-09-27 21:25:00,66.8,46.5,29.94,West,275,0.0,0.0,48,0.00,,,0.00,0,Wunderground v.1.15,2013-09-28 04:25:00,
2013-09-27 21:30:00,66.7,46.9,29.94,West,275,0.0,0.0,49,0.00,,,0.00,0,Wunderground v.1.15,2013-09-28 04:30:00,
2013-09-27 21:35:00,66.5,46.7,29.94,West,275,0.0,0.0,49,0.00,,,0.00,0,Wunderground v.1.15,2013-09-28 04:35:00,
2013-09-27 21:41:00,66.3,47.1,29.94,West,275,0.0,0.0,50,0.00,,,0.00,0,Wunderground v.1.15,2013-09-28 04:41:00,
2013-09-27 21:45:00,66.2,47.0,29.94,West,275,0.0,0.0,50,0.00,,,0.00,0,Wunderground v.1.15,2013-09-28 04:45:00,
2013-09-27 21:50:00,66.0,46.8,29.94,West,275,0.0,0.0,50,0.00,,,0.00,0,Wunderground v.1.15,2013-09-28 04:50:00,
2013-09-27 21:55:00,66.0,46.8,29.94,West,275,0.0,0.0,50,0.00,,,0.00,0,Wunderground v.1.15,2013-09-28 04:55:00,
2013-09-27 22:06:00,65.8,46.6,29.95,West,275,0.0,0.0,50,0.00,,,0.00,0,Wunderground v.1.15,2013-09-28 05:06:00,
2013-09-27 22:15:00,65.4,46.8,29.95,West,275,0.0,0.0,51,0.00,,,0.00,0,Wunderground v.1.15,2013-09-28 05:15:00,
2013-09-27 22:20:00,65.2,46.1,29.95,West,275,0.0,0.0,50,0.00,,,0.00,0,Wunderground v.1.15,2013-09-28 05:20:00,
2013-09-27 22:26:00,64.9,46.3,29.95,West,275,0.0,0.0,51,0.00,,,0.00,0,Wunderground v.1.15,2013-09-28 05:26:00,
2013-09-27 22:35:00,64.4,45.3,29.96,West,275,0.0,0.0,50,0.00,,,0.00,0,Wunderground v.1.15,2013-09-28 05:35:00,
2013-09-27 22:41:00,64.3,45.3,29.96,West,275,0.0,0.0,50,0.00,,,0.00,0,Wunderground v.1.15,2013-09-28 05:41:00,
2013-09-27 22:50:00,63.8,45.3,29.96,West,275,0.0,0.0,51,0.00,,,0.00,0,Wunderground v.1.15,2013-09-28 05:50:00,
2013-09-27 22:55:00,63.6,45.1,29.96,West,275,0.0,0.0,51,0.00,,,0.00,0,Wunderground v.1.15,2013-09-28 05:55:00,
2013-09-27 23:00:00,63.4,44.9,29.96,West,275,0.0,0.0,51,0.00,,,0.00,0,Wunderground v.1.15,2013-09-28 06:00:00,
2013-09-27 23:05:00,63.3,45.9,29.96,West,275,0.0,0.0,53,0.00,,,0.00,0,Wunderground v.1.15,2013-09-28 06:05:00,
2013-09-27 23:15:00,63.0,45.6,29.96,West,275,0.0,0.0,53,0.00,,,0.00,0,Wunderground v.1.15,2013-09-28 06:15:00,
2013-09-27 23:21:00,62.9,46.0,29.96,West,275,0.0,0.0,54,0.00,,,0.00,0,Wunderground v.1.15,2013-09-28 06:21:00,
2013-09-27 23:30:00,62.6,45.7,29.96,West,275,0.0,0.0,54,0.00,,,0.00,0,Wunderground v.1.15,2013-09-28 06:30:00,
2013-09-27 23:40:00,62.3,45.4,29.96,West,275,0.0,0.0,54,0.00,,,0.00,0,Wunderground v.1.15,2013-09-28 06:40:00,
2013-09-27 23:45:00,62.1,44.3,29.95,West,275,0.0,0.0,52,0.00,,,0.00,0,Wunderground v.1.15,2013-09-28 06:45:00,
2013-09-27 23:50:00,62.0,44.7,29.95,West,275,0.0,0.0,53,0.00,,,0.00,0,Wunderground v.1.15,2013-09-28 06:50:00,
2013-09-27 23:56:00,61.9,44.6,29.95,West,275,0.0,0.0,53,0.00,,,0.00,0,Wunderground v.1.15,2013-09-28 06:56:00,